HXMT (HUIYAN) (42758 NORAD) Tracking and Keplerian Element Data

This shows tracking and keplerian element data for the satellite.

Feedback or suggestion? Click here.




ElementValue
Catalog42758
NameHXMT (HUIYAN)
Epoch Orbit6003
Epoch Day198.70288722
Epoch Year2018
RAAN278.8894
Inclination43.019
Eccentricity0.001033
Argument of Perigee304.5756
Mean Anonmoly189.7313
Mean Motion15.08360498
Decay Rate1.57E-06
L11 42758U 17034A 18198.70288722 .00000157 00000-0 23707-4 0 9990
L22 42758 43.0190 278.8894 0010330 304.5756 189.7313 15.08360498 60033

Live tracking and technical data element details for HXMT (HUIYAN) (NORAD 42758). HXMT (HUIYAN) can be tracked NOW for your location showing map with azimuth and elevation plus other details from your city location.

Track the satellite on the map from your city or location and see movement details for azimuth, elevation, latitude, longitude, range, height, and movement on the map or in text.







IsCatalogInMostPopularTable: catalog: 42758, numindb: 66
Update: records affected: 1



GetName: 42758 HXMT (HUIYAN)

Hit Count: updated at: Fri, 20 Jul 2018 20:36:22 GMT